When you browse on this site, cookies collect data to enhance your experience and personalize the content and advertising you see.
Visit our Privacy Policy to learn more. By continuing to use the site, you agree to this use of cookies and data.
  • In Deutschland
  • Länderverzeichnis
  • Für 7 Tage
  • Wassertemperatur
  • Satellitenkarten
  • Wetterkarte
  • Widgets
  • user-avatar
    Anmelden

    Stündliche Wetter Lubumbaschi

    Heute, 22 Januar, Dienstag

    Zeit Temperatur Niederschläge Wind Luftdruck Luftfeuchtigkeit
    00:00 +27°C° 0 mm 5 m/S 720 mmHg 14%
    01:00 +26°C° 0 mm 5 m/S 720 mmHg 15%
    02:00 +26°C° 0 mm 5 m/S 720 mmHg 16%
    03:00 +25°C° 0 mm 5 m/S 720 mmHg 16%
    04:00 +25°C° 0 mm 5 m/S 720 mmHg 16%
    05:00 +25°C° 0 mm 5 m/S 720 mmHg 16%
    06:00 +26°C° 0 mm 6 m/S 720 mmHg 15%
    07:00 +26°C° 0 mm 6 m/S 720 mmHg 14%
    08:00 +28°C° 0 mm 7 m/S 721 mmHg 13%
    09:00 +32°C° 0 mm 7 m/S 721 mmHg 11%
    10:00 +35°C° 0 mm 7 m/S 721 mmHg 10%
    11:00 +39°C° 0 mm 7 m/S 721 mmHg 8%
    12:00 +40°C° 0 mm 7 m/S 720 mmHg 8%
    13:00 +41°C° 0 mm 6 m/S 720 mmHg 7%
    14:00 +42°C° 0 mm 5 m/S 719 mmHg 7%
    15:00 +41°C° 0 mm 5 m/S 719 mmHg 7%
    16:00 +41°C° 0 mm 5 m/S 718 mmHg 7%
    17:00 +41°C° 0 mm 5 m/S 718 mmHg 7%
    18:00 +37°C° 0 mm 5 m/S 718 mmHg 8%
    19:00 +34°C° 0 mm 5 m/S 718 mmHg 9%
    20:00 +30°C° 0 mm 5 m/S 718 mmHg 10%
    21:00 +29°C° 0 mm 5 m/S 719 mmHg 11%
    22:00 +29°C° 0 mm 6 m/S 719 mmHg 12%
    23:00 +28°C° 0 mm 6 m/S 719 mmHg 12%

    Morgen, 23 Januar, Mittwoch

    Zeit Temperatur Niederschläge Wind Luftdruck Luftfeuchtigkeit
    00:00 +27°C° 0 mm 6 m/S 719 mmHg 13%
    01:00 +26°C° 0 mm 6 m/S 719 mmHg 14%
    02:00 +26°C° 0 mm 6 m/S 718 mmHg 14%
    03:00 +25°C° 0 mm 5 m/S 718 mmHg 15%
    04:00 +23°C° 0 mm 5 m/S 718 mmHg 15%
    05:00 +23°C° 0 mm 5 m/S 718 mmHg 15%
    06:00 +23°C° 0 mm 5 m/S 719 mmHg 15%
    07:00 +24°C° 0 mm 6 m/S 719 mmHg 14%
    08:00 +26°C° 0 mm 6 m/S 720 mmHg 13%
    09:00 +29°C° 0 mm 6 m/S 720 mmHg 11%
    10:00 +33°C° 0 mm 7 m/S 720 mmHg 9%
    11:00 +38°C° 0 mm 7 m/S 721 mmHg 8%
    12:00 +39°C° 0 mm 6 m/S 720 mmHg 7%
    13:00 +40°C° 0 mm 5 m/S 719 mmHg 7%
    14:00 +41°C° 0 mm 4 m/S 718 mmHg 6%
    15:00 +40°C° 0 mm 3 m/S 718 mmHg 6%
    16:00 +40°C° 0 mm 3 m/S 717 mmHg 6%
    17:00 +40°C° 0 mm 2 m/S 717 mmHg 6%
    18:00 +37°C° 0 mm 2 m/S 717 mmHg 8%
    19:00 +34°C° 0 mm 3 m/S 717 mmHg 9%
    20:00 +30°C° 0 mm 3 m/S 718 mmHg 10%
    21:00 +30°C° 0 mm 3 m/S 718 mmHg 11%
    22:00 +29°C° 0 mm 4 m/S 718 mmHg 11%
    23:00 +28°C° 0 mm 4 m/S 719 mmHg 12%

    übermorgen, 24 Januar, Donnerstag

    Zeit Temperatur Niederschläge Wind Luftdruck Luftfeuchtigkeit
    00:00 +27°C° 0 mm 4 m/S 718 mmHg 12%
    01:00 +27°C° 0 mm 4 m/S 718 mmHg 13%
    02:00 +26°C° 0 mm 4 m/S 718 mmHg 14%
    03:00 +25°C° 0 mm 4 m/S 718 mmHg 15%
    04:00 +25°C° 0 mm 4 m/S 718 mmHg 16%
    05:00 +23°C° 0 mm 5 m/S 718 mmHg 16%
    06:00 +25°C° 0 mm 5 m/S 718 mmHg 16%
    07:00 +26°C° 0 mm 5 m/S 719 mmHg 15%
    08:00 +27°C° 0 mm 6 m/S 720 mmHg 14%
    09:00 +32°C° 0 mm 6 m/S 720 mmHg 12%
    10:00 +36°C° 0 mm 6 m/S 720 mmHg 10%
    11:00 +40°C° 0 mm 6 m/S 720 mmHg 7%
    12:00 +41°C° 0 mm 5 m/S 719 mmHg 7%
    13:00 +42°C° 0 mm 3 m/S 718 mmHg 6%
    14:00 +42°C° 0 mm 2 m/S 717 mmHg 6%
    15:00 +42°C° 0 mm 2 m/S 717 mmHg 6%
    16:00 +42°C° 0 mm 1 m/S 717 mmHg 6%
    17:00 +42°C° 0 mm 1 m/S 716 mmHg 6%
    18:00 +39°C° 0 mm 2 m/S 716 mmHg 7%
    19:00 +36°C° 0 mm 2 m/S 717 mmHg 8%
    20:00 +33°C° 0 mm 3 m/S 717 mmHg 10%
    21:00 +33°C° 0 mm 3 m/S 717 mmHg 10%
    22:00 +32°C° 0 mm 4 m/S 718 mmHg 11%
    23:00 +30°C° 0 mm 4 m/S 718 mmHg 11%

    25 Januar, Freitag

    Zeit Temperatur Niederschläge Wind Luftdruck Luftfeuchtigkeit
    00:00 +29°C° 0 mm 4 m/S 718 mmHg 11%
    01:00 +28°C° 0 mm 4 m/S 717 mmHg 12%
    02:00 +27°C° 0 mm 4 m/S 717 mmHg 13%
    03:00 +26°C° 0 mm 4 m/S 717 mmHg 13%
    04:00 +26°C° 0 mm 4 m/S 717 mmHg 14%
    05:00 +25°C° 0 mm 4 m/S 717 mmHg 14%
    06:00 +27°C° 0 mm 4 m/S 718 mmHg 14%
    07:00 +28°C° 0 mm 3 m/S 718 mmHg 14%
    08:00 +29°C° 0 mm 3 m/S 719 mmHg 13%
    09:00 +33°C° 0 mm 3 m/S 719 mmHg 11%
    10:00 +37°C° 0 mm 4 m/S 720 mmHg 9%
    11:00 +42°C° 0 mm 4 m/S 720 mmHg 7%
    12:00 +42°C° 0 mm 3 m/S 719 mmHg 7%
    13:00 +42°C° 0 mm 2 m/S 718 mmHg 7%
    14:00 +43°C° 0 mm 1 m/S 717 mmHg 6%
    15:00 +43°C° 0 mm 1 m/S 717 mmHg 6%
    16:00 +43°C° 0 mm 1 m/S 716 mmHg 7%
    17:00 +43°C° 0 mm 1 m/S 716 mmHg 7%
    18:00 +40°C° 0 mm 1 m/S 716 mmHg 8%
    19:00 +37°C° 0 mm 2 m/S 717 mmHg 9%
    20:00 +35°C° 0 mm 3 m/S 717 mmHg 10%
    21:00 +34°C° 0 mm 3 m/S 717 mmHg 10%
    22:00 +33°C° 0 mm 4 m/S 717 mmHg 11%
    23:00 +32°C° 0 mm 4 m/S 717 mmHg 11%

    26 Januar, Samstag

    Zeit Temperatur Niederschläge Wind Luftdruck Luftfeuchtigkeit
    00:00 +30°C° 0 mm 4 m/S 717 mmHg 12%
    01:00 +29°C° 0 mm 4 m/S 717 mmHg 12%
    02:00 +28°C° 0 mm 4 m/S 717 mmHg 13%
    03:00 +28°C° 0 mm 4 m/S 717 mmHg 14%
    04:00 +27°C° 0 mm 4 m/S 717 mmHg 15%
    05:00 +27°C° 0 mm 4 m/S 717 mmHg 15%
    06:00 +28°C° 0 mm 4 m/S 718 mmHg 15%
    07:00 +29°C° 0 mm 4 m/S 718 mmHg 14%
    08:00 +30°C° 0 mm 4 m/S 719 mmHg 13%
    09:00 +34°C° 0 mm 4 m/S 719 mmHg 11%
    10:00 +39°C° 0 mm 5 m/S 719 mmHg 9%
    11:00 +43°C° 0 mm 5 m/S 719 mmHg 7%
    12:00 +45°C° 0 mm 5 m/S 718 mmHg 7%
    13:00 +44°C° 0 mm 4 m/S 717 mmHg 7%
    14:00 +45°C° 0 mm 3 m/S 716 mmHg 8%
    15:00 +45°C° 0 mm 3 m/S 716 mmHg 8%
    16:00 +45°C° 0 mm 3 m/S 716 mmHg 8%
    17:00 +44°C° 0 mm 3 m/S 716 mmHg 8%
    18:00 +42°C° 0 mm 3 m/S 716 mmHg 9%
    19:00 +38°C° 0 mm 3 m/S 716 mmHg 11%
    20:00 +35°C° 0 mm 3 m/S 716 mmHg 13%
    21:00 +34°C° 0 mm 3 m/S 716 mmHg 14%
    22:00 +32°C° 0 mm 2 m/S 717 mmHg 15%
    23:00 +31°C° 0 mm 2 m/S 717 mmHg 16%

    27 Januar, Sonntag

    Zeit Temperatur Niederschläge Wind Luftdruck Luftfeuchtigkeit
    00:00 +30°C° 0 mm 2 m/S 717 mmHg 16%
    01:00 +30°C° 0 mm 2 m/S 716 mmHg 17%
    02:00 +29°C° 0 mm 2 m/S 716 mmHg 18%
    03:00 +29°C° 0 mm 2 m/S 716 mmHg 18%
    04:00 +29°C° 0 mm 2 m/S 716 mmHg 18%
    05:00 +29°C° 0 mm 2 m/S 716 mmHg 18%
    06:00 +30°C° 0 mm 2 m/S 717 mmHg 17%
    07:00 +31°C° 0 mm 2 m/S 717 mmHg 16%
    08:00 +34°C° 0 mm 2 m/S 718 mmHg 14%
    09:00 +36°C° 0 mm 2 m/S 718 mmHg 13%
    10:00 +39°C° 0 mm 2 m/S 718 mmHg 12%
    11:00 +41°C° 0 mm 1 m/S 718 mmHg 10%
    12:00 +42°C° 0 mm 1 m/S 718 mmHg 10%
    13:00 +43°C° 0 mm 2 m/S 717 mmHg 9%
    14:00 +45°C° 0 mm 2 m/S 716 mmHg 8%
    15:00 +45°C° 0 mm 2 m/S 715 mmHg 8%
    16:00 +45°C° 0 mm 2 m/S 715 mmHg 8%
    17:00 +45°C° 0 mm 2 m/S 715 mmHg 8%
    18:00 +41°C° 0 mm 2 m/S 715 mmHg 10%
    19:00 +38°C° 0 mm 2 m/S 715 mmHg 12%
    20:00 +35°C° 0 mm 2 m/S 716 mmHg 14%
    21:00 +34°C° 0 mm 3 m/S 716 mmHg 14%
    22:00 +34°C° 0 mm 3 m/S 716 mmHg 14%
    23:00 +33°C° 0 mm 3 m/S 716 mmHg 15%
    Mehr zeigen